[[{"header":{"parameterUnit":"m.s-1","parameterCategory":1,"la1":30.2992,"la2":30.254,"lo1":-89.0895,"lo2":-89.0443,"dy":0.0025,"dx":0.0025,"nx":19,"ny":19,"refTime":"2026-03-13T09:00:00:Z","depth":0,"parameterNumber":2,"parameterNumberName":"U-component_of_WINDS"},"data":[0,0,0,-3.6049,-3.6056,-3.6391,-3.6392,-3.6786,-3.679,0,0,0,0,0,0,0,0,0,0,0,-3.5929,-3.5931,-3.6049,-3.6056,-3.6391,-3.6393,-3.6786,-3.679,0,0,0,0,0,0,0,0,0,0,0,-3.5928,-3.593,-3.5933,-3.6058,-3.6391,-3.6393,-3.6785,-3.6545,0,0,0,0,0,0,0,0,0,0,-3.6225,-3.6093,-3.593,-3.5933,-3.6059,-3.639,-3.6393,-3.6534,-3.656,-3.662,0,-3.6668,0,-3.6735,-3.6814,-3.6815,0,0,0,-3.6072,-3.6071,-3.6181,-3.5933,-3.6062,-3.639,-3.6244,-3.6548,-3.6578,-3.6654,-3.6674,-3.669,-3.6742,-3.6816,-3.6818,-3.7118,-3.7118,0,0,-3.6053,-3.5977,-3.6161,-3.6199,-3.6146,-3.6233,-3.6254,-3.6567,-3.6583,-3.6676,-3.67,-3.6748,-3.6819,-3.6821,-3.7117,-3.7118,0,0,0,-3.599,-3.5963,-3.6067,-3.6182,-3.6245,-3.6243,-3.6267,-3.6569,-3.6609,-3.6704,-3.6753,-3.6821,-3.6825,-3.7117,-3.7117,-3.7076,0,0,0,-3.5979,-3.5927,-3.6058,-3.6014,-3.6239,-3.6411,-3.6261,-3.6588,-3.6625,-3.6751,-3.6821,-3.6829,-3.7116,-3.7117,-3.7076,-3.7068,0,0,0,-3.5914,-3.5919,-3.5961,-3.601,-3.6151,-3.6408,-3.6467,-3.6597,-3.6654,-3.6815,-3.683,-3.7115,-3.7117,-3.7076,-3.7068,-3.7124,0,0,0,-3.5822,-3.5918,-3.5959,-3.6086,-3.6148,-3.6381,-3.6465,-3.6643,-3.6776,-3.6823,-3.7116,-3.7117,-3.7076,-3.7068,-3.7123,-3.7155,-3.7162,0,0,-3.59,-3.5925,-3.6006,-3.6052,-3.6259,-3.6336,-3.6538,-3.6731,-3.6816,-3.7012,-3.7021,-3.7076,-3.7068,-3.7124,-3.7234,-3.7239,0,0,0,-3.6005,-3.6061,-3.6133,-3.6258,-3.641,-3.6539,-3.6711,-3.6784,-3.6955,-3.6901,-3.7116,-3.7113,-3.7149,-3.7168,-3.7172,-3.7207,-3.7124,-3.7124,-3.7123,-3.6002,-3.6109,-3.625,-3.6397,-3.6517,-3.6696,-3.6803,-3.6932,-3.7001,-3.7051,-3.7108,-3.7162,-3.7181,-3.7185,-3.7221,-3.7137,-3.7137,-3.7137,-3.7137,-3.6125,-3.6221,-3.6318,-3.6488,-3.66,-3.6745,-3.6923,-3.6969,-3.712,-3.7127,-3.7164,-3.7158,-3.7187,-3.7224,-3.7135,-3.7135,-3.7135,-3.7135,-3.7135,-3.6132,-3.6197,-3.6287,-3.6481,-3.6619,-3.6766,-3.6908,-3.7006,-3.7099,-3.7136,-3.7207,-3.7208,-3.7219,-3.7164,-3.7164,-3.7164,-3.7164,-3.7165,-3.7165,-3.6102,-3.6205,-3.6313,-3.6487,-3.6582,-3.6719,-3.6904,-3.7,-3.7131,-3.7191,-3.7192,-3.7256,-3.7172,-3.7146,-3.7168,-3.7167,-3.7167,-3.7167,-3.7166,-3.618,-3.618,-3.6345,-3.6441,-3.6655,-3.6786,-3.6912,-3.71,-3.7195,-3.7262,-3.7322,-3.7244,-3.7275,-3.7272,-3.7251,-3.7299,-3.7299,-3.7299,-3.7299,-3.6184,-3.6212,-3.6405,-3.6551,-3.6707,-3.6838,-3.7024,-3.717,-3.7321,-3.7386,-3.7395,-3.7378,-3.7371,-3.7406,-3.7401,-3.7383,-3.7463,-3.7463,-3.7463,-3.6237,-3.6285,-3.6422,-3.6572,-3.6749,-3.6897,-3.7075,-3.724,-3.7411,-3.7472,-3.7439,-3.7433,-3.7406,-3.7393,-3.7445,-3.7434,-3.7403,0,0]},{"header":{"parameterUnit":"m.s-1","parameterCategory":1,"la1":30.2992,"la2":30.254,"lo1":-89.0895,"lo2":-89.0443,"dy":0.0025,"dx":0.0025,"nx":19,"ny":19,"refTime":"2026-03-13T09:00:00:Z","depth":0,"parameterNumber":3,"parameterNumberName":"V-component_of_WINDS"},"data":[0,0,0,4.0254,4.0256,4.0331,4.0332,4.0435,4.0436,0,0,0,0,0,0,0,0,0,0,0,4.0236,4.0237,4.0254,4.0256,4.0331,4.0332,4.0434,4.0436,0,0,0,0,0,0,0,0,0,0,0,4.0236,4.0237,4.0238,4.0256,4.0331,4.0332,4.0434,4.0375,0,0,0,0,0,0,0,0,0,0,4.03,4.0288,4.0237,4.0238,4.0257,4.0331,4.0332,4.0372,4.0378,4.0403,0,4.0428,0,4.0433,4.0443,4.0443,0,0,0,4.0252,4.0283,4.0299,4.0238,4.0258,4.0331,4.0296,4.0375,4.0383,4.0412,4.0429,4.0433,4.0435,4.0444,4.0444,4.0605,4.0606,0,0,4.0248,4.0252,4.0294,4.0305,4.0294,4.0294,4.0299,4.038,4.0398,4.0429,4.0435,4.0437,4.0444,4.0445,4.0604,4.0605,0,0,0,4.0239,4.0249,4.0263,4.03,4.0314,4.0296,4.0302,4.0394,4.0399,4.0436,4.0438,4.0445,4.0446,4.0603,4.0604,4.0654,0,0,0,4.0236,4.0244,4.0262,4.0265,4.0312,4.0355,4.0314,4.0393,4.0402,4.0438,4.0445,4.0447,4.0602,4.0604,4.065,4.0675,0,0,0,4.023,4.0243,4.0256,4.0265,4.0298,4.0354,4.0363,4.0395,4.0404,4.0443,4.0448,4.0601,4.0603,4.0647,4.067,4.0719,0,0,0,4.0224,4.0297,4.0256,4.034,4.0297,4.0385,4.0362,4.0427,4.0467,4.0446,4.0602,4.0604,4.0646,4.0667,4.0715,4.0759,4.0778,0,0,4.0318,4.0308,4.0357,4.0323,4.0419,4.0373,4.0476,4.0508,4.0508,4.0572,4.0576,4.0651,4.067,4.0718,4.0887,4.0902,0,0,0,4.0388,4.0423,4.0448,4.0488,4.0516,4.0542,4.0559,4.0572,4.0627,4.0542,4.0683,4.0694,4.0722,4.0742,4.0755,4.0779,4.0614,4.0614,4.0614,4.0525,4.0523,4.0604,4.0612,4.0651,4.067,4.0701,4.0721,4.0705,4.0739,4.0757,4.086,4.0884,4.0894,4.0919,4.0782,4.0782,4.0782,4.0782,4.0662,4.071,4.0693,4.0764,4.0762,4.0822,4.0844,4.0832,4.0887,4.0845,4.087,4.0823,4.0911,4.0932,4.0786,4.0785,4.0785,4.0785,4.0784,4.0749,4.0772,4.0788,4.0848,4.0894,4.09,4.0955,4.0951,4.0947,4.0972,4.099,4.0989,4.0987,4.0982,4.0982,4.0982,4.0983,4.0983,4.0983,4.0832,4.0849,4.0896,4.0936,4.0962,4.0996,4.1019,4.1044,4.1071,4.1064,4.1064,4.1045,4.0921,4.0888,4.0988,4.0987,4.0987,4.0986,4.0986,4.0967,4.0937,4.101,4.1037,4.1084,4.113,4.1127,4.118,4.12,4.1228,4.1206,4.1115,4.1104,4.1093,4.1066,4.1206,4.1206,4.1206,4.1207,4.1039,4.1035,4.111,4.1153,4.1196,4.1201,4.1283,4.1303,4.1317,4.133,4.131,4.1275,4.1265,4.126,4.1246,4.1221,4.1397,4.1397,4.1397,4.1122,4.1123,4.1193,4.121,4.1247,4.1279,4.1357,4.1407,4.1418,4.1405,4.134,4.1332,4.1276,4.1258,4.1239,4.1218,4.1171,0,0]}]]